Regional Weather Roundup
Issued by NWS

Home | Current Version | Previous Version | Text Only | Print | Product List | Glossary Off
Versions: 1 2 3 4 5 6 7 8 9 10 11 12 13 14 15 16 17 18 19 20 21 22 23 24 25 26 27 28 29 30 31 32 33 34 35 36 37 38 39 40 41 42 43 44 45 46 47 48 49 50

000
ASUS43 KOAX 191902
RWRNE

WEATHER ROUNDUP FOR NEBRASKA
NATIONAL WEATHER SERVICE OMAHA NE
100 PM CST THU JAN 19 2017

NOTES: SATELLITE DATA IS BEING USED TO AUGMENT CLOUD COVER ABOVE
       12000 FEET.
       "FAIR" INDICATES FEW OR NO CLOUDS BELOW 12,000 FEET WITH NO
       SIGNIFICANT WEATHER AND/OR OBSTRUCTIONS TO VISIBILITY.

  * THESE STATIONS DO NOT REPORT WEATHER SUCH AS RAIN...SNOW OR FOG.

NEZ001>004-019>022-054>056-192000-
NEBRASKA PANHANDLE

CITY           SKY/WX    TMP DP  RH WIND       PRES   REMARKS
SCOTTSBLUFF    SUNNY     46  25  43 VRB3      29.54F
ALLIANCE       SUNNY     50  23  34 SW7       29.52F
CHADRON        SUNNY     39  24  55 SW8       29.52F WCI  33
KIMBALL        SUNNY     48  30  48 W6        29.56F
SIDNEY         SUNNY     50  24  36 CALM      29.55F
$$

NEZ057>060-069>072-079>082-192000-
SOUTHWEST NEBRASKA

CITY           SKY/WX    TMP DP  RH WIND       PRES   REMARKS
NORTH PLATTE   FOG       34  34 100 NW5       29.59F VSB 1/2 WCI  30
IMPERIAL       SUNNY     38  32  79 S8        29.58F WCI  32
LEXINGTON      CLOUDY    42  41  95 S5        29.60F FOG
MCCOOK         FOG       36  36 100 W8        29.60F VSB 1   WCI  30
OGALLALA       SUNNY     43  30  59 S5        29.56F
$$

NEZ005>010-023>029-035>040-094-192000-
NORTH CENTRAL NEBRASKA

CITY           SKY/WX    TMP DP  RH WIND       PRES   REMARKS
VALENTINE      SUNNY     52  20  28 SW13      29.51F
AINSWORTH      CLOUDY    37  37 100 S15       29.55F WCI  28
BROKEN BOW     CLOUDY    41  40  96 S9        29.59F FOG
O`NEILL        CLOUDY    43  42  97 S13       29.59F
ORD            CLOUDY    40  39  97 SE5       29.60F FOG
THEDFORD       PTSUNNY   35  34  95 SW10      29.57F WCI  28
$$

NEZ041-046>049-061>064-073>077-083>087-192000-
SOUTH CENTRAL NEBRASKA

CITY           SKY/WX    TMP DP  RH WIND       PRES   REMARKS
GRAND ISLAND   CLOUDY    41  41 100 S7        29.63F FOG
AURORA         CLOUDY    41  41 100 SE10      29.63F FOG
HASTINGS       FOG       41  41 100 SE8       29.64F VSB 1
HEBRON         CLOUDY    43  43  99 SE6       29.66F FOG
HOLDREGE       CLOUDY    42  41  97 S6        29.60F FOG
KEARNEY *      CLOUDY    41  39  93 S8        29.61F
YORK           MOSUNNY   41  41 100 S9        29.66F FOG
$$

NEZ011>018-030>034-042>045-192000-
NORTHEAST NEBRASKA

CITY           SKY/WX    TMP DP  RH WIND       PRES   REMARKS
NORFOLK        FOG       39  38  96 SE12      29.63F VSB 3/4 WCI  32
ALBION         FOG       38  38 100 SE7       29.63F VSB 1/4 WCI  33
BLAIR          CLOUDY    42  41  97 SE7       29.69F FOG
FREMONT        CLOUDY    40  40 100 SE5       29.70F FOG
TEKAMAH        FOG       38  36  92 CALM      29.71F VSB 1/4
WAYNE          CLOUDY    40  40  99 S13       29.66F FOG     WCI  33
$$

NEZ050>053-065>068-078-088>093-192000-
SOUTHEAST NEBRASKA

CITY           SKY/WX    TMP DP  RH WIND       PRES   REMARKS
LINCOLN        CLOUDY    44  41  89 S14       29.70F
OMAHA EPPLEY   PTSUNNY   43  39  86 S8        29.71F FOG
BEATRICE       CLOUDY    43  41  95 S7        29.69F
FALLS CITY     CLOUDY    45  44  97 SE6       29.70F FOG
NEBRASKA CITY  CLOUDY    43  43 100 SE6       29.70F FOG
PLATTSMOUTH    CLOUDY    42  40  91 E6        29.70F FOG
$$

NEZ044-045-051>053-067-192000-
OMAHA AREA

CITY           SKY/WX    TMP DP  RH WIND       PRES   REMARKS
OMAHA EPPLEY   PTSUNNY   43  39  86 S8        29.71F FOG
BLAIR          CLOUDY    42  41  97 SE7       29.69F FOG
FREMONT        CLOUDY    40  40 100 SE5       29.70F FOG
MILLARD        CLOUDY    43  42  95 SE8       29.70F FOG
OFFUTT AFB     CLOUDY    43  43 100 SE5       29.70F
PLATTSMOUTH    CLOUDY    42  40  91 E6        29.70F FOG
WAHOO          FOG       40  39  97 SE8       29.69F VSB 1/2 WCI  34
$$




USA.gov is the U.S. government's official web portal to all federal, state and local government web resources and services.